Simultaneous Nadir Overpasses (SNOs) Predictions

Prediction of SNOs between LANDSAT-8 and NOAA-19 Satellite Orbit:

Table of predicted SNOs for the next 14.0 days since TLE Epoch: 7/20/2024
Index Date (LANDSAT-8) Time (LANDSAT-8) Lat,Lon (LANDSAT-8) SZA (LANDSAT-8 ) Date (NOAA-19) Time (NOAA-19) Lat,Lon (NOAA-19) SZA (NOAA-19 ) Distance(km) Time Diff (sec)
1 07/20/2024 11:50:53 -80.61,-144.38 118.45 07/20/2024 11:50:08 -80.60,-144.54 118.49 3.04 45
2 07/20/2024 12:40:18 80.65, 23.70 61.63 07/20/2024 12:41:09 80.65, 23.72 61.66 0.46 51
3 07/22/2024 18:14:06 -80.58, 119.57 118.05 07/22/2024 18:12:59 -80.58, 119.43 118.08 2.39 67
4 07/22/2024 19:03:30 80.65, -72.05 62.09 07/22/2024 19:03:59 80.65, -71.93 62.11 2.10 29
5 07/25/2024 01:26:42 80.64,-167.99 62.54 07/25/2024 01:26:50 80.63,-168.04 62.53 1.31 8
6 07/27/2024 07:49:54 80.61, 95.88 62.99 07/27/2024 07:49:41 80.60, 95.75 62.97 2.45 13
7 07/27/2024 08:39:20 -80.63, -96.18 116.96 07/27/2024 08:40:33 -80.63, -96.33 116.95 2.81 73
8 07/29/2024 14:13:04 80.59, -0.11 63.48 07/29/2024 14:12:30 80.59, -0.22 63.46 1.99 34
9 07/29/2024 15:02:29 -80.65, 168.17 116.41 07/29/2024 15:03:21 -80.64, 168.08 116.40 1.97 52
10 07/31/2024 20:36:14 80.58, -95.97 64.03 07/31/2024 20:35:19 80.58, -95.95 64.01 0.34 55
11 07/31/2024 21:25:40 -80.61, 71.99 115.91 07/31/2024 21:26:11 -80.62, 72.06 115.88 1.37 31
12 08/03/2024 03:00:05 79.11, 156.35 62.36 08/03/2024 02:58:54 79.46, 153.78 62.50 65.23 71



Historial Predications of SNOs between LANDSAT-8 and NOAA-19
